Location: Alamogordo
(32.8990°N, 105.9600°W)
Time: 02:17:26
(UTC-06:00)

Tiangong - Visible Passes

Search period start: 05 October 2022 00:00
Search period end: 15 October 2022 00:00
Orbit: 382 x 386 km, 41.5° (Epoch: 05 October)

Date Brightness Start Highest point End Pass type
(mag) Time Alt. Az. Time Alt. Az. Time Alt. Az.
05 Oct -0.9 20:15:25 10° SW 20:17:26 33° SSW 20:17:26 33° SSW visible
06 Oct -0.8 19:16:05 10° SSW 19:18:44 25° SE 19:20:53 13° E visible
06 Oct 1.0 20:52:26 10° W 20:53:07 15° W 20:53:07 15° W visible
07 Oct -2.2 19:52:22 10° WSW 19:55:30 78° NNW 19:56:24 43° NE visible
08 Oct 0.0 20:29:46 10° W 20:31:44 24° NW 20:31:44 24° NW visible
09 Oct -1.2 19:29:26 10° W 19:32:26 42° NNW 19:34:44 15° NE visible
10 Oct -0.1 20:07:01 10° WNW 20:09:30 21° NNW 20:09:49 20° N visible
11 Oct -0.5 19:06:29 10° W 19:09:15 27° NNW 19:12:02 10° NE visible
11 Oct 1.2 20:44:33 10° NW 20:44:47 11° NW 20:44:47 11° NW visible
12 Oct 0.0 19:44:06 10° NW 19:46:20 18° N 19:47:29 15° NNE visible
13 Oct 0.5 20:21:14 10° NW 20:22:19 15° NNW 20:22:19 15° NNW visible
14 Oct 0.1 19:20:53 10° NW 19:23:01 17° N 19:24:55 11° NE visible
